Vertical_Velocity
8 1 -3 6 1 -0 4 -9 2 5 2 1 8 2 9 7 4 14 -1 81 -22 12
-2 -1 6 -1 0 -0 -0 -10 6 2 1 -0 6 3 0 10 3 -11 56 33 -3 2
-2 -1 -2 2 3 -2 0 4 -1 3 2 4 2 13 -1 -5 -0 8 5 3 -11 -1
-2 -0 -0 10 -9 -2 4 -1 -2 1 -0 0 1 -1 8 8 -7 11 -14 -7 -5 -1
1 5 -2 1 2 12 -1 2 8 6 -0 1 1 11 -2 -4 7 2 -2 -8 -9 4
-3 6 15 1 5 5 5 9 41 9 2 4 10 -17 4 -2 -1 1 -6 -6 7 1
-2 2 2 -2 -3 -3 14 61 6 0 -8 -13 8 5 -6 5 -2 -4 -4 -4 -0 1
1 -1 -1 18 2 -2 4 9 23 13 -8 28 -7 6 5 -2 -4 -7 -2 -3 2 1
-1 2 9 3 11 1 -2 51 -13 0 15 -10 12 6 6 2 1 2 4 4 1 4
7 6 11 3 10 7 5 1 22 21 7 -1 16 5 0 3 0 4 0 2 -2 0
9 9 8 6 7 -6 8 10 10 8 10 14 4 7 3 -1 1 -1 3 1 1 5
4 0 -0 1 3 0 5 2 0 1 0 9 7 -4 -3 1 1 -1 -2 6 4 8
-5 -2 3 3 -0 3 -1 -1 -4 -3 -4 -7 3 1 -2 -4 -5 -8 -4 -2 1 -1
2 2 1 3 3 2 5 1 -0 -2 -1 -3 -3 6 6 0 -3 -1 -2 -4 -4 -5
Height
5618 5619 5622 5626 5631 5638 5643 5650 5658 5660 5663 5666 5669 5669 5671 5671 5675 5675 5676 5674 5683 5682
5593 5598 5602 5607 5611 5617 5624 5633 5641 5644 5648 5651 5654 5653 5657 5657 5660 5659 5664 5664 5672 5669
5565 5568 5577 5585 5591 5597 5607 5616 5623 5628 5632 5635 5639 5640 5644 5645 5650 5654 5654 5654 5662 5662
5547 5548 5551 5560 5565 5578 5590 5598 5605 5610 5617 5621 5626 5628 5630 5632 5633 5641 5647 5652 5648 5650
5532 5532 5537 5542 5548 5559 5570 5579 5589 5593 5602 5607 5611 5616 5619 5624 5628 5633 5631 5636 5637 5641
5523 5524 5526 5530 5536 5544 5553 5561 5572 5578 5586 5593 5598 5602 5611 5613 5616 5619 5621 5626 5630 5632
5516 5518 5521 5523 5526 5533 5539 5537 5552 5564 5574 5579 5586 5593 5597 5604 5606 5610 5612 5617 5621 5624
5509 5510 5515 5517 5522 5527 5528 5532 5537 5551 5562 5562 5577 5582 5587 5591 5594 5599 5602 5606 5609 5612
5502 5503 5508 5513 5517 5519 5523 5527 5534 5542 5550 5558 5567 5571 5577 5580 5584 5588 5592 5595 5598 5600
5501 5502 5507 5509 5512 5514 5517 5521 5527 5533 5536 5546 5553 5559 5566 5569 5573 5577 5580 5585 5587 5588
5500 5502 5504 5505 5508 5509 5509 5514 5517 5521 5526 5529 5539 5547 5554 5559 5562 5566 5570 5574 5576 5578
5501 5500 5500 5502 5503 5506 5508 5509 5511 5515 5519 5524 5530 5537 5542 5546 5552 5555 5559 5563 5565 5567
5502 5499 5498 5499 5499 5500 5503 5503 5506 5511 5517 5521 5523 5529 5533 5536 5542 5547 5551 5553 5555 5557
5502 5501 5500 5498 5497 5498 5498 5500 5502 5505 5508 5510 5515 5519 5522 5527 5531 5535 5539 5542 5545 5546